Precipitable_Water
0.47 0.48 0.49 0.48 0.48 0.48 0.49 0.50 0.50 0.52 0.52 0.52 0.52 0.52 0.53 0.53 0.53 0.55 0.56 0.55 0.56 0.56 0.56 0.56 0.56 0.56 0.55 0.55 0.55 0.55 0.55 0.55 0.57 0.57 0.57 0.57 0.59 0.60 0.60 0.61 0.59 0.60 0.61 0.61 0.63 0.63 0.63 0.62 0.62 0.64 0.67 0.65 0.66 0.68 0.69 0.70 0.73 0.73 0.74 0.74 0.72 0.75 0.74 0.69 0.62 0.57 0.57 0.64 0.69 0.68 0.73 0.73 0.68 0.70 0.69 0.68 0.69 0.71 0.72 0.71 0.71 0.71 0.71 0.70 0.71
0.47 0.47 0.48 0.48 0.47 0.48 0.48 0.50 0.50 0.50 0.49 0.50 0.50 0.51 0.51 0.52 0.53 0.54 0.52 0.53 0.54 0.53 0.52 0.52 0.52 0.51 0.49 0.49 0.49 0.50 0.50 0.50 0.50 0.50 0.49 0.49 0.49 0.51 0.51 0.51 0.50 0.50 0.51 0.50 0.52 0.54 0.54 0.53 0.53 0.55 0.59 0.59 0.60 0.61 0.63 0.64 0.65 0.64 0.65 0.67 0.67 0.68 0.73 0.69 0.64 0.61 0.54 0.56 0.60 0.68 0.67 0.69 0.62 0.66 0.64 0.63 0.64 0.67 0.66 0.67 0.68 0.69 0.68 0.69 0.69
0.48 0.48 0.48 0.48 0.48 0.48 0.49 0.49 0.49 0.49 0.48 0.49 0.49 0.50 0.51 0.51 0.51 0.50 0.49 0.48 0.48 0.48 0.48 0.47 0.47 0.47 0.46 0.46 0.46 0.46 0.47 0.47 0.48 0.48 0.47 0.47 0.46 0.46 0.47 0.47 0.46 0.45 0.45 0.45 0.45 0.47 0.46 0.46 0.45 0.47 0.49 0.48 0.48 0.49 0.52 0.53 0.55 0.55 0.56 0.59 0.59 0.60 0.63 0.65 0.61 0.55 0.52 0.50 0.53 0.55 0.58 0.60 0.58 0.58 0.62 0.63 0.63 0.63 0.62 0.63 0.64 0.66 0.67 0.68 0.67
0.48 0.48 0.48 0.48 0.48 0.48 0.48 0.49 0.48 0.48 0.47 0.48 0.47 0.47 0.47 0.46 0.47 0.45 0.45 0.46 0.45 0.46 0.46 0.46 0.46 0.45 0.45 0.45 0.46 0.46 0.46 0.46 0.46 0.46 0.45 0.45 0.44 0.43 0.43 0.43 0.42 0.42 0.41 0.40 0.40 0.40 0.39 0.38 0.37 0.39 0.40 0.39 0.39 0.40 0.42 0.43 0.43 0.43 0.44 0.46 0.48 0.48 0.52 0.56 0.57 0.55 0.52 0.47 0.46 0.49 0.54 0.55 0.56 0.60 0.61 0.61 0.60 0.60 0.60 0.61 0.61 0.61 0.62 0.64 0.65
0.48 0.48 0.47 0.47 0.47 0.47 0.47 0.47 0.46 0.45 0.45 0.44 0.44 0.44 0.44 0.45 0.45 0.45 0.44 0.44 0.45 0.45 0.45 0.46 0.45 0.44 0.43 0.44 0.44 0.44 0.44 0.45 0.44 0.44 0.45 0.45 0.44 0.42 0.41 0.40 0.39 0.38 0.38 0.37 0.36 0.36 0.35 0.34 0.34 0.34 0.34 0.33 0.32 0.33 0.34 0.34 0.36 0.38 0.38 0.40 0.41 0.43 0.45 0.47 0.48 0.50 0.48 0.45 0.44 0.47 0.51 0.53 0.55 0.55 0.57 0.55 0.55 0.56 0.56 0.55 0.55 0.56 0.57 0.61 0.62
0.48 0.47 0.47 0.45 0.45 0.45 0.45 0.44 0.44 0.44 0.43 0.43 0.43 0.43 0.44 0.44 0.44 0.45 0.46 0.45 0.46 0.46 0.45 0.45 0.45 0.44 0.45 0.45 0.45 0.44 0.44 0.43 0.42 0.41 0.41 0.40 0.39 0.38 0.37 0.36 0.35 0.35 0.34 0.34 0.33 0.33 0.32 0.31 0.31 0.32 0.31 0.30 0.29 0.30 0.32 0.32 0.33 0.33 0.34 0.35 0.36 0.38 0.39 0.40 0.42 0.42 0.42 0.40 0.39 0.37 0.39 0.41 0.43 0.45 0.49 0.50 0.48 0.47 0.48 0.50 0.51 0.52 0.54 0.54 0.57
0.47 0.46 0.46 0.45 0.44 0.44 0.44 0.44 0.43 0.43 0.43 0.43 0.43 0.43 0.44 0.45 0.46 0.46 0.47 0.47 0.46 0.45 0.45 0.45 0.45 0.45 0.45 0.45 0.43 0.42 0.40 0.39 0.38 0.37 0.37 0.36 0.36 0.35 0.33 0.33 0.32 0.31 0.31 0.31 0.30 0.30 0.29 0.29 0.29 0.29 0.29 0.29 0.29 0.28 0.29 0.29 0.30 0.29 0.30 0.31 0.32 0.33 0.33 0.33 0.35 0.36 0.36 0.35 0.35 0.35 0.34 0.36 0.37 0.36 0.40 0.43 0.43 0.42 0.41 0.41 0.41 0.46 0.49 0.51 0.51
0.47 0.46 0.45 0.44 0.44 0.44 0.44 0.44 0.44 0.44 0.44 0.44 0.44 0.44 0.45 0.46 0.47 0.47 0.47 0.46 0.46 0.45 0.45 0.44 0.44 0.44 0.43 0.41 0.40 0.39 0.36 0.35 0.34 0.34 0.34 0.34 0.33 0.32 0.31 0.30 0.29 0.28 0.28 0.28 0.28 0.27 0.28 0.28 0.28 0.28 0.29 0.29 0.29 0.29 0.29 0.28 0.29 0.28 0.29 0.31 0.31 0.31 0.30 0.31 0.32 0.32 0.32 0.32 0.31 0.31 0.32 0.32 0.33 0.36 0.38 0.37 0.34 0.34 0.38 0.39 0.36 0.38 0.42 0.46 0.48
0.46 0.45 0.44 0.43 0.44 0.44 0.44 0.44 0.45 0.44 0.45 0.44 0.44 0.45 0.46 0.47 0.47 0.47 0.46 0.45 0.44 0.44 0.44 0.44 0.42 0.40 0.39 0.37 0.35 0.34 0.32 0.32 0.32 0.31 0.31 0.30 0.31 0.30 0.29 0.28 0.27 0.27 0.26 0.26 0.26 0.26 0.26 0.26 0.27 0.27 0.28 0.28 0.28 0.28 0.29 0.29 0.28 0.26 0.25 0.28 0.29 0.29 0.28 0.29 0.30 0.30 0.30 0.30 0.29 0.31 0.31 0.30 0.30 0.31 0.31 0.31 0.30 0.32 0.37 0.38 0.35 0.38 0.40 0.41 0.43
0.45 0.44 0.43 0.43 0.44 0.45 0.45 0.45 0.44 0.45 0.45 0.45 0.45 0.45 0.46 0.46 0.45 0.44 0.43 0.43 0.43 0.42 0.42 0.40 0.39 0.37 0.35 0.33 0.33 0.32 0.31 0.31 0.30 0.30 0.29 0.29 0.28 0.28 0.27 0.26 0.26 0.26 0.25 0.24 0.24 0.25 0.25 0.25 0.25 0.26 0.26 0.26 0.25 0.25 0.26 0.26 0.27 0.27 0.26 0.27 0.27 0.27 0.27 0.26 0.26 0.27 0.28 0.27 0.27 0.28 0.28 0.27 0.28 0.31 0.31 0.33 0.36 0.38 0.37 0.36 0.34 0.36 0.37 0.37 0.39
0.44 0.44 0.43 0.44 0.45 0.45 0.45 0.45 0.45 0.44 0.45 0.44 0.44 0.43 0.43 0.43 0.43 0.42 0.42 0.42 0.41 0.41 0.40 0.38 0.36 0.35 0.34 0.33 0.32 0.31 0.30 0.29 0.28 0.27 0.27 0.26 0.26 0.25 0.25 0.24 0.24 0.24 0.23 0.23 0.22 0.22 0.23 0.23 0.24 0.24 0.24 0.23 0.23 0.23 0.23 0.24 0.24 0.25 0.26 0.28 0.29 0.28 0.26 0.25 0.24 0.26 0.27 0.27 0.27 0.28 0.27 0.26 0.27 0.31 0.33 0.35 0.37 0.37 0.38 0.37 0.36 0.35 0.33 0.32 0.31
0.44 0.44 0.44 0.44 0.44 0.44 0.44 0.44 0.43 0.43 0.42 0.41 0.41 0.42 0.43 0.43 0.42 0.42 0.42 0.41 0.41 0.40 0.38 0.36 0.35 0.34 0.33 0.31 0.30 0.28 0.26 0.25 0.25 0.24 0.24 0.24 0.24 0.24 0.24 0.23 0.23 0.22 0.22 0.21 0.21 0.20 0.20 0.20 0.20 0.22 0.22 0.22 0.22 0.23 0.23 0.23 0.23 0.24 0.24 0.25 0.27 0.28 0.30 0.29 0.27 0.26 0.26 0.26 0.26 0.25 0.26 0.26 0.27 0.31 0.33 0.35 0.36 0.39 0.39 0.38 0.37 0.35 0.34 0.33 0.34
0.44 0.43 0.44 0.44 0.43 0.43 0.42 0.41 0.40 0.40 0.40 0.41 0.42 0.43 0.44 0.44 0.43 0.42 0.42 0.42 0.41 0.38 0.36 0.35 0.33 0.31 0.30 0.28 0.26 0.25 0.25 0.24 0.24 0.23 0.23 0.23 0.23 0.23 0.22 0.22 0.21 0.20 0.19 0.19 0.18 0.18 0.18 0.18 0.18 0.19 0.20 0.21 0.21 0.21 0.21 0.21 0.22 0.24 0.25 0.25 0.25 0.26 0.27 0.29 0.32 0.32 0.31 0.29 0.26 0.25 0.26 0.27 0.29 0.31 0.35 0.37 0.40 0.37 0.37 0.36 0.37 0.37 0.36 0.35 0.35
0.44 0.44 0.43 0.43 0.42 0.41 0.40 0.40 0.40 0.41 0.42 0.43 0.44 0.44 0.44 0.43 0.44 0.43 0.42 0.41 0.38 0.36 0.34 0.32 0.30 0.28 0.27 0.26 0.25 0.25 0.24 0.23 0.23 0.22 0.22 0.21 0.21 0.21 0.20 0.19 0.19 0.18 0.17 0.17 0.17 0.17 0.17 0.17 0.17 0.16 0.17 0.18 0.19 0.19 0.19 0.19 0.20 0.22 0.23 0.24 0.24 0.24 0.25 0.27 0.28 0.31 0.32 0.31 0.29 0.27 0.28 0.31 0.30 0.33 0.36 0.40 0.38 0.36 0.36 0.36 0.38 0.36 0.36 0.35 0.39
0.44 0.43 0.42 0.42 0.41 0.40 0.40 0.40 0.41 0.42 0.43 0.44 0.45 0.45 0.44 0.44 0.43 0.42 0.41 0.38 0.36 0.33 0.31 0.29 0.28 0.27 0.26 0.25 0.24 0.23 0.22 0.22 0.21 0.21 0.20 0.19 0.19 0.18 0.18 0.17 0.17 0.16 0.16 0.16 0.15 0.15 0.15 0.15 0.15 0.15 0.15 0.15 0.16 0.17 0.18 0.18 0.19 0.20 0.20 0.21 0.22 0.22 0.23 0.24 0.26 0.29 0.30 0.31 0.31 0.32 0.32 0.32 0.33 0.35 0.37 0.39 0.39 0.40 0.41 0.40 0.41 0.40 0.40 0.40 0.39
0.43 0.42 0.41 0.41 0.41 0.41 0.41 0.41 0.43 0.44 0.45 0.45 0.45 0.45 0.44 0.43 0.41 0.40 0.38 0.36 0.33 0.31 0.29 0.28 0.26 0.25 0.24 0.23 0.22 0.21 0.20 0.20 0.19 0.18 0.17 0.17 0.17 0.16 0.16 0.15 0.15 0.14 0.14 0.13 0.13 0.14 0.14 0.14 0.14 0.14 0.13 0.14 0.14 0.15 0.16 0.18 0.19 0.19 0.18 0.19 0.19 0.20 0.21 0.23 0.27 0.30 0.29 0.31 0.32 0.33 0.34 0.35 0.36 0.36 0.37 0.38 0.40 0.42 0.43 0.44 0.43 0.40 0.38 0.36 0.33
0.42 0.42 0.41 0.41 0.42 0.42 0.42 0.43 0.45 0.46 0.47 0.46 0.45 0.44 0.42 0.41 0.39 0.38 0.35 0.32 0.30 0.29 0.27 0.26 0.26 0.24 0.23 0.22 0.20 0.18 0.17 0.17 0.16 0.16 0.15 0.15 0.15 0.14 0.14 0.14 0.13 0.13 0.12 0.12 0.12 0.12 0.12 0.13 0.13 0.13 0.13 0.13 0.13 0.14 0.15 0.17 0.19 0.18 0.18 0.18 0.18 0.18 0.18 0.20 0.25 0.28 0.29 0.31 0.32 0.33 0.34 0.34 0.34 0.35 0.37 0.39 0.41 0.42 0.41 0.37 0.35 0.38 0.36 0.33 0.34
0.42 0.42 0.42 0.42 0.43 0.43 0.45 0.46 0.47 0.47 0.47 0.45 0.44 0.42 0.41 0.39 0.37 0.36 0.33 0.31 0.29 0.27 0.27 0.26 0.24 0.23 0.20 0.18 0.17 0.16 0.15 0.15 0.15 0.15 0.14 0.14 0.14 0.13 0.13 0.12 0.12 0.11 0.11 0.10 0.10 0.11 0.11 0.11 0.12 0.12 0.12 0.12 0.13 0.14 0.15 0.18 0.18 0.19 0.19 0.18 0.18 0.17 0.17 0.19 0.23 0.25 0.28 0.30 0.31 0.32 0.32 0.32 0.32 0.34 0.35 0.37 0.39 0.42 0.39 0.33 0.36 0.38 0.34 0.34 0.32
0.42 0.42 0.43 0.44 0.45 0.46 0.47 0.48 0.48 0.47 0.45 0.44 0.43 0.40 0.39 0.37 0.35 0.34 0.31 0.29 0.28 0.27 0.25 0.22 0.19 0.17 0.16 0.16 0.15 0.15 0.14 0.13 0.13 0.13 0.13 0.13 0.13 0.12 0.12 0.12 0.11 0.10 0.10 0.10 0.10 0.10 0.11 0.11 0.12 0.12 0.13 0.13 0.14 0.15 0.17 0.18 0.20 0.21 0.21 0.20 0.19 0.18 0.17 0.20 0.21 0.22 0.24 0.25 0.27 0.30 0.29 0.30 0.31 0.31 0.32 0.35 0.37 0.39 0.41 0.40 0.41 0.38 0.34 0.34 0.35
0.43 0.44 0.45 0.46 0.47 0.48 0.50 0.49 0.48 0.46 0.44 0.42 0.41 0.39 0.37 0.35 0.32 0.30 0.28 0.27 0.23 0.21 0.18 0.17 0.15 0.15 0.15 0.15 0.14 0.13 0.13 0.12 0.12 0.11 0.12 0.11 0.11 0.11 0.12 0.11 0.10 0.10 0.11 0.11 0.11 0.11 0.11 0.12 0.12 0.13 0.13 0.15 0.16 0.17 0.18 0.19 0.20 0.21 0.23 0.22 0.21 0.19 0.22 0.23 0.23 0.23 0.23 0.24 0.25 0.27 0.28 0.29 0.29 0.30 0.30 0.32 0.35 0.37 0.40 0.42 0.42 0.41 0.38 0.37 0.36
0.45 0.46 0.47 0.48 0.50 0.51 0.50 0.48 0.46 0.44 0.43 0.41 0.39 0.37 0.34 0.31 0.29 0.26 0.22 0.20 0.17 0.16 0.15 0.15 0.14 0.14 0.14 0.13 0.13 0.12 0.12 0.11 0.10 0.10 0.11 0.11 0.11 0.12 0.12 0.11 0.12 0.12 0.12 0.12 0.12 0.12 0.12 0.13 0.13 0.14 0.15 0.16 0.17 0.18 0.19 0.20 0.20 0.21 0.22 0.22 0.23 0.25 0.27 0.25 0.24 0.24 0.24 0.24 0.24 0.25 0.26 0.28 0.28 0.28 0.28 0.30 0.33 0.35 0.38 0.41 0.42 0.43 0.42 0.40 0.36
0.48 0.49 0.50 0.51 0.51 0.49 0.47 0.45 0.44 0.42 0.41 0.39 0.35 0.31 0.30 0.27 0.23 0.19 0.17 0.16 0.15 0.14 0.14 0.14 0.13 0.12 0.12 0.11 0.11 0.10 0.10 0.10 0.10 0.10 0.11 0.11 0.12 0.12 0.13 0.13 0.14 0.14 0.14 0.14 0.14 0.14 0.15 0.15 0.16 0.16 0.17 0.17 0.18 0.19 0.19 0.19 0.20 0.21 0.21 0.22 0.23 0.25 0.25 0.26 0.26 0.25 0.24 0.24 0.24 0.24 0.25 0.26 0.27 0.27 0.27 0.29 0.32 0.34 0.36 0.38 0.40 0.43 0.44 0.43 0.41
0.51 0.52 0.51 0.49 0.47 0.46 0.44 0.43 0.41 0.40 0.37 0.34 0.30 0.27 0.24 0.20 0.17 0.16 0.15 0.15 0.14 0.13 0.13 0.13 0.12 0.11 0.10 0.09 0.09 0.09 0.10 0.10 0.10 0.10 0.11 0.11 0.12 0.13 0.14 0.15 0.16 0.16 0.16 0.15 0.16 0.17 0.18 0.18 0.18 0.18 0.18 0.18 0.18 0.18 0.19 0.19 0.20 0.20 0.21 0.22 0.22 0.23 0.24 0.24 0.24 0.24 0.23 0.23 0.23 0.23 0.24 0.26 0.26 0.27 0.27 0.28 0.31 0.33 0.34 0.36 0.38 0.39 0.40 0.41 0.42
0.51 0.49 0.47 0.46 0.44 0.43 0.42 0.40 0.38 0.35 0.31 0.28 0.25 0.21 0.18 0.16 0.16 0.15 0.15 0.14 0.13 0.12 0.11 0.11 0.10 0.09 0.08 0.08 0.08 0.09 0.09 0.10 0.10 0.10 0.11 0.11 0.12 0.13 0.14 0.15 0.16 0.16 0.16 0.16 0.17 0.17 0.17 0.17 0.17 0.17 0.18 0.19 0.19 0.19 0.19 0.20 0.20 0.20 0.21 0.21 0.22 0.23 0.23 0.22 0.21 0.21 0.22 0.22 0.22 0.22 0.23 0.26 0.28 0.28 0.28 0.29 0.30 0.31 0.32 0.33 0.35 0.37 0.38 0.38 0.38
0.47 0.46 0.44 0.43 0.42 0.41 0.39 0.36 0.32 0.28 0.26 0.23 0.19 0.16 0.15 0.15 0.14 0.14 0.14 0.12 0.11 0.10 0.09 0.09 0.09 0.08 0.08 0.08 0.08 0.08 0.09 0.10 0.10 0.11 0.12 0.12 0.13 0.14 0.14 0.15 0.16 0.17 0.17 0.17 0.18 0.18 0.19 0.20 0.20 0.20 0.20 0.20 0.20 0.21 0.20 0.20 0.20 0.21 0.21 0.22 0.22 0.23 0.23 0.22 0.22 0.22 0.21 0.21 0.22 0.24 0.25 0.27 0.29 0.30 0.29 0.29 0.29 0.30 0.31 0.31 0.32 0.35 0.36 0.36 0.37
0.45 0.43 0.42 0.41 0.39 0.36 0.32 0.29 0.27 0.24 0.21 0.19 0.17 0.16 0.15 0.14 0.13 0.12 0.11 0.10 0.10 0.09 0.09 0.09 0.09 0.08 0.08 0.08 0.09 0.09 0.09 0.10 0.10 0.11 0.12 0.13 0.13 0.14 0.15 0.16 0.16 0.17 0.18 0.18 0.19 0.19 0.20 0.20 0.20 0.21 0.21 0.22 0.22 0.22 0.21 0.21 0.21 0.22 0.22 0.23 0.23 0.23 0.23 0.23 0.23 0.22 0.21 0.22 0.23 0.24 0.25 0.28 0.28 0.29 0.29 0.28 0.27 0.28 0.29 0.29 0.30 0.33 0.34 0.33 0.34
0.42 0.40 0.39 0.37 0.34 0.31 0.27 0.25 0.23 0.20 0.17 0.16 0.15 0.14 0.14 0.13 0.12 0.11 0.10 0.09 0.09 0.09 0.09 0.09 0.08 0.09 0.08 0.09 0.09 0.09 0.10 0.10 0.11 0.12 0.12 0.13 0.14 0.15 0.15 0.16 0.16 0.17 0.17 0.18 0.19 0.19 0.20 0.20 0.21 0.22 0.22 0.23 0.23 0.23 0.23 0.23 0.23 0.22 0.22 0.23 0.24 0.25 0.25 0.25 0.24 0.23 0.23 0.23 0.24 0.25 0.27 0.27 0.28 0.27 0.27 0.26 0.26 0.27 0.29 0.28 0.28 0.30 0.31 0.31 0.32
0.38 0.36 0.34 0.32 0.29 0.27 0.24 0.22 0.19 0.16 0.15 0.14 0.13 0.12 0.12 0.11 0.10 0.10 0.09 0.09 0.08 0.08 0.08 0.09 0.09 0.09 0.09 0.10 0.10 0.10 0.10 0.10 0.11 0.12 0.13 0.14 0.15 0.15 0.16 0.16 0.16 0.17 0.17 0.18 0.19 0.20 0.20 0.21 0.21 0.21 0.21 0.21 0.21 0.21 0.22 0.23 0.23 0.23 0.23 0.24 0.24 0.25 0.26 0.26 0.27 0.26 0.26 0.26 0.27 0.27 0.26 0.26 0.25 0.26 0.26 0.26 0.26 0.26 0.28 0.27 0.27 0.28 0.29 0.30 0.29
0.34 0.31 0.29 0.27 0.25 0.23 0.21 0.18 0.16 0.14 0.13 0.12 0.12 0.12 0.11 0.10 0.10 0.10 0.11 0.11 0.10 0.09 0.09 0.09 0.10 0.11 0.11 0.11 0.11 0.11 0.11 0.10 0.12 0.15 0.16 0.16 0.16 0.16 0.16 0.16 0.17 0.17 0.18 0.19 0.20 0.20 0.20 0.20 0.20 0.20 0.20 0.20 0.20 0.21 0.22 0.22 0.22 0.22 0.22 0.23 0.25 0.25 0.25 0.25 0.24 0.24 0.25 0.26 0.26 0.26 0.25 0.25 0.25 0.25 0.25 0.25 0.25 0.26 0.27 0.26 0.27 0.28 0.28 0.28 0.28
0.27 0.25 0.24 0.23 0.21 0.19 0.17 0.15 0.14 0.13 0.12 0.12 0.11 0.11 0.11 0.11 0.11 0.10 0.10 0.11 0.11 0.11 0.12 0.11 0.11 0.12 0.12 0.12 0.13 0.13 0.13 0.14 0.15 0.15 0.15 0.16 0.16 0.16 0.16 0.17 0.17 0.18 0.19 0.20 0.20 0.19 0.19 0.19 0.19 0.20 0.20 0.20 0.19 0.19 0.20 0.21 0.22 0.22 0.23 0.24 0.25 0.26 0.25 0.25 0.26 0.26 0.27 0.27 0.27 0.26 0.25 0.25 0.24 0.24 0.24 0.24 0.25 0.25 0.26 0.26 0.25 0.27 0.27 0.26 0.26
0.24 0.23 0.22 0.21 0.19 0.17 0.16 0.14 0.13 0.12 0.12 0.11 0.10 0.09 0.09 0.09 0.10 0.10 0.10 0.10 0.10 0.11 0.11 0.12 0.13 0.14 0.14 0.12 0.13 0.14 0.14 0.15 0.15 0.16 0.16 0.16 0.16 0.15 0.15 0.16 0.17 0.18 0.19 0.20 0.19 0.18 0.18 0.17 0.18 0.18 0.19 0.20 0.20 0.21 0.22 0.23 0.23 0.24 0.24 0.25 0.25 0.24 0.23 0.25 0.27 0.28 0.28 0.28 0.27 0.27 0.26 0.25 0.24 0.24 0.24 0.24 0.24 0.24 0.24 0.25 0.26 0.26 0.26 0.26 0.26
0.23 0.22 0.21 0.19 0.18 0.16 0.15 0.14 0.13 0.12 0.11 0.10 0.10 0.09 0.09 0.08 0.08 0.09 0.09 0.09 0.10 0.11 0.11 0.12 0.12 0.12 0.13 0.13 0.13 0.13 0.13 0.14 0.14 0.15 0.16 0.16 0.16 0.16 0.16 0.16 0.17 0.18 0.19 0.19 0.17 0.16 0.17 0.16 0.17 0.18 0.19 0.20 0.21 0.22 0.23 0.23 0.24 0.24 0.24 0.24 0.24 0.24 0.25 0.26 0.28 0.30 0.29 0.29 0.27 0.26 0.26 0.25 0.24 0.24 0.23 0.23 0.24 0.24 0.23 0.23 0.24 0.24 0.24 0.25 0.25
0.22 0.20 0.19 0.18 0.17 0.15 0.14 0.12 0.11 0.11 0.10 0.10 0.09 0.09 0.08 0.08 0.07 0.06 0.07 0.09 0.09 0.10 0.10 0.11 0.12 0.12 0.12 0.13 0.14 0.14 0.14 0.14 0.14 0.14 0.15 0.15 0.15 0.16 0.16 0.17 0.17 0.17 0.17 0.16 0.16 0.16 0.17 0.18 0.18 0.19 0.20 0.21 0.22 0.23 0.23 0.24 0.25 0.25 0.25 0.24 0.24 0.25 0.27 0.29 0.31 0.31 0.30 0.29 0.28 0.27 0.26 0.25 0.24 0.24 0.23 0.23 0.23 0.23 0.23 0.23 0.24 0.25 0.25 0.25 0.24
0.21 0.20 0.19 0.17 0.15 0.14 0.13 0.12 0.11 0.10 0.10 0.10 0.09 0.09 0.08 0.08 0.07 0.07 0.07 0.07 0.07 0.09 0.10 0.11 0.11 0.11 0.11 0.12 0.13 0.13 0.14 0.14 0.15 0.15 0.15 0.15 0.15 0.16 0.16 0.16 0.16 0.16 0.16 0.16 0.16 0.16 0.17 0.17 0.18 0.19 0.20 0.21 0.22 0.22 0.21 0.21 0.22 0.23 0.23 0.24 0.25 0.26 0.27 0.29 0.30 0.30 0.30 0.29 0.28 0.27 0.27 0.25 0.24 0.23 0.23 0.23 0.23 0.23 0.22 0.23 0.24 0.24 0.24 0.24 0.24
0.20 0.19 0.17 0.16 0.14 0.13 0.12 0.11 0.11 0.10 0.10 0.10 0.09 0.09 0.08 0.08 0.08 0.08 0.08 0.07 0.07 0.07 0.08 0.09 0.10 0.11 0.11 0.12 0.12 0.13 0.13 0.14 0.14 0.15 0.15 0.15 0.15 0.16 0.16 0.14 0.14 0.14 0.15 0.16 0.16 0.17 0.17 0.18 0.18 0.19 0.20 0.21 0.20 0.20 0.21 0.23 0.23 0.24 0.24 0.24 0.25 0.26 0.27 0.28 0.29 0.30 0.29 0.29 0.28 0.27 0.27 0.25 0.24 0.24 0.23 0.23 0.22 0.22 0.22 0.22 0.23 0.24 0.24 0.24 0.24
0.19 0.18 0.17 0.15 0.13 0.12 0.11 0.11 0.11 0.10 0.10 0.10 0.09 0.09 0.08 0.08 0.08 0.08 0.08 0.08 0.08 0.08 0.08 0.09 0.10 0.11 0.12 0.12 0.12 0.12 0.13 0.13 0.14 0.14 0.15 0.15 0.15 0.16 0.14 0.13 0.14 0.14 0.15 0.16 0.17 0.18 0.19 0.19 0.20 0.21 0.21 0.20 0.21 0.22 0.23 0.23 0.23 0.24 0.25 0.26 0.26 0.27 0.27 0.27 0.28 0.28 0.29 0.28 0.28 0.27 0.26 0.25 0.24 0.24 0.23 0.23 0.23 0.22 0.22 0.23 0.23 0.24 0.24 0.24 0.24
0.19 0.17 0.16 0.14 0.12 0.12 0.11 0.11 0.11 0.10 0.10 0.10 0.09 0.09 0.08 0.08 0.08 0.08 0.08 0.08 0.09 0.09 0.09 0.10 0.10 0.10 0.11 0.11 0.12 0.12 0.12 0.13 0.14 0.14 0.15 0.15 0.15 0.15 0.14 0.14 0.14 0.15 0.15 0.16 0.18 0.19 0.19 0.20 0.22 0.21 0.21 0.22 0.21 0.21 0.21 0.22 0.23 0.24 0.24 0.25 0.26 0.27 0.27 0.28 0.28 0.28 0.28 0.27 0.27 0.27 0.26 0.25 0.24 0.24 0.23 0.23 0.22 0.22 0.22 0.23 0.23 0.24 0.24 0.24 0.24
0.18 0.16 0.14 0.13 0.12 0.12 0.11 0.11 0.10 0.10 0.10 0.10 0.09 0.08 0.08 0.08 0.08 0.08 0.09 0.09 0.09 0.09 0.10 0.10 0.10 0.10 0.10 0.10 0.11 0.11 0.12 0.12 0.13 0.13 0.14 0.14 0.15 0.15 0.15 0.15 0.15 0.15 0.16 0.18 0.19 0.19 0.19 0.20 0.20 0.21 0.21 0.21 0.21 0.22 0.22 0.23 0.24 0.24 0.25 0.26 0.26 0.27 0.28 0.28 0.28 0.28 0.28 0.27 0.27 0.26 0.25 0.24 0.24 0.24 0.23 0.23 0.22 0.22 0.22 0.23 0.23 0.23 0.23 0.23 0.23
0.17 0.15 0.13 0.13 0.12 0.12 0.11 0.11 0.10 0.10 0.10 0.09 0.09 0.08 0.08 0.08 0.08 0.09 0.09 0.09 0.09 0.10 0.10 0.10 0.10 0.10 0.10 0.11 0.11 0.11 0.11 0.11 0.11 0.12 0.13 0.13 0.14 0.15 0.15 0.15 0.15 0.16 0.16 0.17 0.18 0.19 0.19 0.19 0.19 0.20 0.21 0.21 0.22 0.22 0.23 0.23 0.24 0.24 0.25 0.26 0.26 0.27 0.27 0.27 0.27 0.27 0.27 0.26 0.25 0.25 0.24 0.24 0.24 0.24 0.23 0.22 0.22 0.22 0.23 0.23 0.23 0.23 0.23 0.23 0.23
0.15 0.14 0.13 0.12 0.12 0.11 0.11 0.10 0.10 0.10 0.09 0.09 0.08 0.08 0.08 0.08 0.09 0.09 0.09 0.09 0.10 0.10 0.10 0.11 0.10 0.11 0.11 0.11 0.11 0.11 0.11 0.11 0.11 0.12 0.13 0.14 0.14 0.15 0.15 0.15 0.15 0.16 0.16 0.17 0.18 0.18 0.18 0.19 0.19 0.19 0.20 0.21 0.22 0.22 0.23 0.23 0.24 0.25 0.25 0.26 0.26 0.26 0.26 0.26 0.26 0.26 0.25 0.25 0.24 0.24 0.24 0.24 0.24 0.23 0.23 0.22 0.22 0.22 0.23 0.23 0.23 0.23 0.23 0.23 0.23
0.15 0.13 0.13 0.12 0.11 0.11 0.11 0.10 0.10 0.10 0.09 0.09 0.09 0.09 0.09 0.09 0.09 0.09 0.10 0.10 0.10 0.11 0.11 0.11 0.11 0.11 0.11 0.12 0.12 0.12 0.12 0.11 0.12 0.13 0.13 0.14 0.15 0.15 0.16 0.16 0.16 0.16 0.17 0.17 0.18 0.18 0.18 0.18 0.19 0.19 0.19 0.20 0.21 0.21 0.22 0.22 0.23 0.24 0.24 0.25 0.25 0.25 0.25 0.25 0.25 0.25 0.25 0.24 0.24 0.24 0.24 0.23 0.23 0.23 0.22 0.22 0.22 0.22 0.23 0.23 0.23 0.23 0.23 0.23 0.22
0.14 0.13 0.12 0.11 0.11 0.11 0.11 0.10 0.10 0.10 0.09 0.09 0.09 0.09 0.09 0.09 0.10 0.10 0.10 0.10 0.11 0.11 0.11 0.11 0.11 0.11 0.12 0.12 0.12 0.12 0.12 0.12 0.13 0.13 0.14 0.15 0.15 0.16 0.16 0.16 0.17 0.17 0.17 0.18 0.18 0.18 0.18 0.19 0.19 0.20 0.20 0.20 0.20 0.20 0.21 0.22 0.22 0.23 0.23 0.24 0.24 0.24 0.24 0.24 0.24 0.24 0.24 0.24 0.24 0.23 0.23 0.23 0.23 0.22 0.22 0.22 0.22 0.22 0.22 0.22 0.22 0.23 0.22 0.22 0.22
0.13 0.12 0.12 0.11 0.11 0.11 0.10 0.10 0.10 0.09 0.09 0.09 0.09 0.09 0.10 0.10 0.10 0.10 0.11 0.11 0.11 0.11 0.11 0.11 0.11 0.11 0.11 0.12 0.12 0.12 0.12 0.12 0.13 0.13 0.14 0.15 0.15 0.16 0.16 0.17 0.17 0.18 0.18 0.19 0.19 0.19 0.19 0.19 0.19 0.20 0.20 0.20 0.21 0.21 0.21 0.21 0.22 0.22 0.23 0.23 0.23 0.23 0.23 0.24 0.24 0.24 0.24 0.23 0.23 0.23 0.23 0.22 0.22 0.22 0.22 0.22 0.22 0.22 0.22 0.22 0.22 0.22 0.22 0.22 0.21
0.13 0.12 0.12 0.11 0.11 0.11 0.11 0.10 0.10 0.10 0.09 0.09 0.09 0.10 0.10 0.10 0.10 0.11 0.11 0.11 0.11 0.11 0.11 0.11 0.11 0.11 0.11 0.11 0.12 0.12 0.12 0.12 0.13 0.13 0.14 0.15 0.15 0.16 0.16 0.17 0.17 0.18 0.19 0.19 0.19 0.19 0.19 0.19 0.20 0.20 0.21 0.21 0.21 0.22 0.22 0.22 0.22 0.22 0.22 0.23 0.23 0.23 0.23 0.23 0.23 0.23 0.23 0.23 0.23 0.23 0.23 0.23 0.23 0.23 0.22 0.22 0.22 0.22 0.22 0.22 0.22 0.22 0.22 0.21 0.21
0.12 0.12 0.11 0.11 0.11 0.11 0.11 0.10 0.10 0.10 0.10 0.10 0.10 0.10 0.10 0.10 0.11 0.11 0.11 0.11 0.11 0.11 0.11 0.11 0.11 0.11 0.11 0.11 0.11 0.11 0.12 0.12 0.13 0.13 0.14 0.15 0.15 0.16 0.16 0.17 0.17 0.18 0.18 0.19 0.19 0.19 0.19 0.19 0.20 0.20 0.20 0.21 0.21 0.22 0.22 0.22 0.22 0.22 0.23 0.23 0.23 0.23 0.23 0.23 0.24 0.24 0.24 0.23 0.23 0.23 0.23 0.23 0.23 0.23 0.22 0.22 0.22 0.22 0.22 0.22 0.22 0.22 0.21 0.21 0.20
0.12 0.12 0.12 0.11 0.11 0.11 0.11 0.11 0.10 0.10 0.10 0.10 0.10 0.10 0.10 0.10 0.11 0.11 0.11 0.11 0.11 0.10 0.10 0.10 0.10 0.11 0.11 0.11 0.11 0.12 0.12 0.12 0.13 0.13 0.14 0.15 0.16 0.16 0.17 0.17 0.17 0.18 0.18 0.19 0.19 0.19 0.19 0.19 0.19 0.19 0.20 0.20 0.21 0.21 0.22 0.22 0.22 0.23 0.23 0.23 0.23 0.23 0.24 0.25 0.25 0.25 0.24 0.24 0.23 0.23 0.23 0.23 0.23 0.23 0.23 0.23 0.23 0.22 0.22 0.22 0.22 0.22 0.21 0.20 0.19
0.13 0.12 0.12 0.12 0.11 0.11 0.11 0.11 0.10 0.10 0.10 0.10 0.10 0.10 0.10 0.10 0.10 0.10 0.10 0.10 0.10 0.10 0.10 0.10 0.10 0.10 0.10 0.11 0.11 0.12 0.12 0.12 0.13 0.13 0.14 0.15 0.16 0.16 0.17 0.17 0.17 0.18 0.18 0.19 0.19 0.20 0.20 0.20 0.20 0.20 0.20 0.21 0.21 0.22 0.22 0.22 0.22 0.23 0.23 0.23 0.24 0.24 0.24 0.25 0.25 0.25 0.25 0.25 0.24 0.24 0.24 0.23 0.23 0.23 0.23 0.23 0.23 0.22 0.22 0.22 0.22 0.22 0.21 0.20 0.19
0.13 0.12 0.12 0.12 0.12 0.11 0.11 0.11 0.10 0.10 0.10 0.10 0.10 0.10 0.10 0.10 0.10 0.10 0.09 0.09 0.09 0.09 0.09 0.09 0.09 0.09 0.09 0.10 0.10 0.11 0.12 0.13 0.13 0.14 0.14 0.15 0.16 0.16 0.17 0.17 0.17 0.18 0.18 0.19 0.19 0.19 0.20 0.20 0.20 0.20 0.21 0.21 0.21 0.21 0.21 0.22 0.23 0.23 0.23 0.24 0.24 0.24 0.25 0.25 0.25 0.25 0.25 0.25 0.25 0.25 0.24 0.24 0.24 0.23 0.23 0.23 0.23 0.23 0.22 0.22 0.22 0.21 0.20 0.19 0.18
0.13 0.12 0.12 0.12 0.12 0.11 0.11 0.11 0.10 0.10 0.10 0.10 0.09 0.09 0.09 0.09 0.09 0.09 0.09 0.09 0.08 0.08 0.08 0.08 0.08 0.08 0.08 0.09 0.09 0.09 0.10 0.12 0.13 0.14 0.14 0.15 0.16 0.16 0.17 0.17 0.17 0.18 0.18 0.19 0.19 0.19 0.20 0.20 0.20 0.21 0.21 0.21 0.21 0.21 0.21 0.22 0.23 0.23 0.23 0.24 0.24 0.24 0.25 0.25 0.25 0.25 0.26 0.26 0.25 0.25 0.25 0.24 0.24 0.24 0.23 0.23 0.23 0.23 0.22 0.22 0.22 0.21 0.20 0.18 0.17
0.13 0.13 0.12 0.12 0.12 0.11 0.11 0.11 0.10 0.10 0.09 0.09 0.09 0.09 0.09 0.08 0.08 0.08 0.08 0.08 0.08 0.07 0.07 0.07 0.08 0.08 0.08 0.08 0.08 0.08 0.09 0.10 0.11 0.13 0.14 0.15 0.15 0.16 0.17 0.17 0.17 0.18 0.18 0.18 0.19 0.19 0.19 0.20 0.20 0.21 0.21 0.21 0.21 0.22 0.22 0.22 0.22 0.23 0.23 0.24 0.24 0.24 0.25 0.25 0.25 0.25 0.25 0.25 0.25 0.25 0.24 0.24 0.23 0.23 0.23 0.23 0.23 0.22 0.22 0.22 0.21 0.20 0.19 0.17 0.16
0.13 0.13 0.12 0.12 0.12 0.11 0.11 0.10 0.10 0.09 0.09 0.08 0.08 0.08 0.08 0.08 0.08 0.07 0.07 0.07 0.07 0.07 0.07 0.07 0.07 0.07 0.07 0.07 0.07 0.08 0.08 0.09 0.09 0.10 0.12 0.14 0.15 0.16 0.16 0.17 0.17 0.17 0.18 0.18 0.19 0.19 0.19 0.20 0.20 0.20 0.21 0.21 0.21 0.21 0.22 0.22 0.22 0.23 0.23 0.23 0.24 0.24 0.24 0.24 0.25 0.25 0.25 0.25 0.25 0.24 0.24 0.24 0.23 0.23 0.23 0.23 0.22 0.22 0.22 0.21 0.20 0.19 0.18 0.16 0.16
Wind_Speed
19 20 20 21 21 21 22 22 23 23 24 24 24 25 26 27 27 28 29 30 30 31 32 32 33 33 33 34 34 35 35 36 37 37 38 38 39 39 40 40 40 41 41 41 41 42 42 42 43 43 43 43 43 43 44 45 46 46 47 48 49 49 49 50 51 54 56 54 54 54 54 54 54 54 54 55 54 54 55 55 55 55 55 54 53
20 20 21 21 21 22 22 23 23 23 24 25 25 26 27 28 29 29 30 31 31 32 32 32 33 33 34 34 35 36 36 37 38 38 39 39 40 40 40 41 41 41 41 42 42 42 42 43 43 43 43 44 44 44 45 46 47 48 48 49 50 50 50 51 52 54 57 57 56 56 55 55 56 56 55 56 55 55 56 56 56 56 55 54 54
21 21 21 21 21 22 22 23 23 24 25 26 26 27 28 29 29 30 30 31 32 32 33 33 34 34 35 36 36 37 38 38 39 40 40 41 41 41 41 41 42 42 42 43 43 43 44 44 44 44 44 45 46 46 47 47 48 49 49 50 51 51 51 52 54 55 57 59 58 57 57 56 57 57 56 56 56 56 56 56 56 55 54 54 54
22 22 22 22 22 22 23 23 24 25 26 26 27 28 28 29 30 30 31 32 32 33 34 34 35 36 36 37 38 39 39 40 40 41 41 42 42 42 42 43 43 43 44 44 45 45 45 45 46 46 46 47 47 48 48 49 49 50 51 51 52 53 53 54 55 56 57 59 59 58 57 57 57 57 57 57 57 56 57 57 56 56 55 55 54
22 22 22 23 23 23 24 25 25 26 27 27 28 29 29 30 31 32 32 33 34 35 35 36 37 37 38 39 39 40 40 41 41 42 42 43 43 43 43 44 44 45 45 46 46 46 46 46 47 47 47 48 49 49 50 51 51 52 53 53 54 55 55 55 56 56 57 59 59 59 58 58 58 58 58 58 58 58 58 58 57 57 56 55 55
23 23 24 24 24 25 25 26 27 27 28 28 29 30 31 31 32 33 34 35 36 36 37 38 38 39 39 39 40 40 41 42 42 43 43 43 44 44 45 45 46 46 46 46 46 46 47 47 48 48 49 50 50 51 52 53 53 54 55 55 56 57 57 57 57 57 58 59 60 61 60 60 60 60 59 59 59 59 59 59 59 58 57 57 56
25 25 25 25 25 26 26 27 28 29 29 30 30 31 32 33 34 35 36 36 37 38 38 39 39 40 40 40 41 41 42 42 43 43 44 44 45 45 46 46 46 46 46 46 47 47 48 49 49 50 51 51 52 53 54 55 55 56 57 57 58 58 59 59 59 59 59 60 61 61 62 61 61 61 60 59 60 60 60 60 60 59 57 57 57
26 26 26 26 27 27 28 29 29 30 30 31 32 33 33 35 36 37 37 38 38 39 39 39 40 40 40 41 41 42 42 43 43 44 44 45 46 46 46 47 47 47 47 47 48 49 50 51 51 52 53 54 55 55 56 57 57 58 58 58 59 60 60 60 60 60 60 61 61 62 62 62 62 61 61 60 60 60 60 60 60 59 58 58 58
27 27 27 28 28 28 29 30 30 31 32 32 33 34 35 36 37 38 38 39 39 39 39 40 40 40 41 41 42 42 43 43 44 45 45 46 46 47 47 47 48 49 49 50 51 51 52 53 54 55 55 56 57 58 58 59 59 59 60 60 60 61 61 62 62 61 61 62 62 62 63 63 63 62 62 61 61 61 61 61 61 60 59 59 59
28 28 28 29 29 30 31 31 32 33 33 34 35 36 37 38 38 39 39 39 39 39 40 40 41 42 42 43 43 43 44 44 45 46 47 47 48 48 49 49 50 51 52 53 54 54 55 56 57 58 58 59 59 60 60 60 60 61 61 61 62 62 63 63 63 63 62 62 63 63 63 64 64 63 64 64 63 63 62 61 61 60 59 59 58
29 29 29 30 31 31 32 33 34 35 35 36 37 37 38 39 39 39 39 39 40 40 41 42 42 43 44 44 44 45 45 46 47 48 48 49 49 50 51 52 52 53 55 56 57 58 58 59 59 60 61 61 61 62 62 62 63 63 63 63 63 63 63 64 64 64 64 64 64 64 65 65 66 65 65 65 64 64 63 62 61 60 59 58 57
30 30 30 31 32 33 34 35 36 36 36 37 38 39 39 39 39 39 40 40 41 41 42 43 44 44 45 45 46 46 46 47 48 49 49 50 51 52 53 54 55 56 57 59 60 61 61 62 62 63 63 63 64 64 64 65 65 65 65 65 65 64 64 65 65 66 65 65 65 66 66 66 67 66 65 65 65 64 64 62 61 60 59 58 57
31 31 32 32 33 34 35 36 37 37 37 38 39 39 40 40 40 40 41 41 42 43 43 44 45 45 46 46 47 47 47 48 49 50 51 52 54 54 55 57 58 59 60 61 62 63 64 65 65 65 65 66 66 66 67 67 67 67 67 67 67 67 67 66 67 67 67 66 67 67 67 67 67 67 66 65 65 64 63 62 61 59 58 58 57
32 32 33 34 34 35 36 37 37 38 38 39 40 40 40 41 41 41 42 42 43 44 44 45 45 46 46 47 47 48 49 50 51 52 53 55 56 57 58 59 60 61 62 63 64 65 66 66 67 68 68 68 68 68 68 69 69 69 69 69 69 69 69 68 68 68 67 67 68 68 68 67 67 67 66 65 64 64 63 61 60 59 58 57 56
33 34 34 35 36 36 37 37 38 38 39 40 40 40 41 41 41 42 42 43 44 45 45 46 46 46 47 48 49 49 50 52 53 54 56 57 58 59 60 61 62 63 64 65 66 67 67 68 68 69 70 70 69 70 70 70 71 71 71 71 71 71 70 70 69 68 68 68 68 68 68 67 66 66 65 64 63 62 62 61 60 59 57 56 54
35 35 35 36 37 37 38 38 39 39 40 40 40 41 41 41 42 42 43 44 45 45 46 46 47 48 49 49 51 51 52 54 55 57 58 59 60 61 62 63 64 65 66 67 68 68 69 69 70 70 71 72 72 72 72 72 72 73 73 73 72 72 71 71 69 69 68 68 68 68 68 67 66 65 64 63 62 61 61 60 59 57 55 53 51
36 36 36 37 38 38 39 39 40 40 40 40 40 41 41 42 43 43 44 45 46 46 47 47 48 49 50 51 52 54 55 56 57 58 60 61 61 62 63 65 66 67 68 68 69 70 70 71 71 72 73 74 74 75 74 74 74 74 74 74 74 73 73 71 70 69 69 69 69 68 68 67 66 65 64 63 62 60 59 58 57 55 53 51 49
36 36 37 38 39 39 39 40 40 40 40 40 40 41 42 43 44 44 45 46 46 47 48 49 50 51 52 53 54 56 57 58 59 60 61 62 62 63 64 66 67 68 69 70 71 72 72 73 74 74 75 76 77 77 77 76 75 75 75 75 75 74 73 71 70 69 69 69 68 68 67 66 65 64 63 62 60 59 57 56 55 53 51 50 48
37 37 38 38 39 39 40 40 40 39 40 40 41 42 43 44 44 45 46 47 48 48 49 51 52 52 53 55 56 57 59 60 61 61 61 62 63 64 65 67 69 70 72 73 74 74 75 75 76 76 77 78 78 78 78 77 76 76 76 75 75 75 74 72 70 70 69 68 67 66 65 64 62 61 60 60 58 57 56 55 53 51 50 48 46
37 38 38 38 39 39 39 39 39 39 40 41 42 43 44 44 45 46 47 48 49 50 51 52 54 55 55 57 58 59 60 61 62 62 63 64 65 66 67 69 71 73 74 75 76 77 77 77 78 78 79 79 79 79 79 78 77 76 75 75 75 74 73 72 71 70 68 68 66 65 63 62 60 59 58 57 56 55 54 53 51 49 48 46 44
37 37 38 38 39 39 39 39 39 40 41 42 43 44 45 45 46 47 48 49 50 52 53 54 55 57 57 58 59 60 61 62 63 64 65 66 67 68 69 70 72 74 76 77 78 79 79 79 79 80 81 81 81 80 80 79 78 76 75 75 75 74 73 71 70 69 68 67 65 64 62 60 59 57 56 55 54 52 52 51 49 47 46 44 43
37 38 38 38 38 38 39 39 40 41 42 43 44 44 45 47 48 49 50 51 52 53 55 56 57 58 59 60 60 61 61 63 64 65 66 67 69 70 70 72 73 75 76 78 79 80 80 80 81 82 82 82 82 81 81 80 78 76 75 75 74 74 72 71 69 68 66 65 64 62 60 58 56 55 53 52 51 50 49 48 46 44 43 43 42
37 37 37 37 38 38 39 40 41 42 43 44 44 46 47 48 49 50 51 52 54 55 56 57 58 60 61 61 62 62 63 64 65 66 67 69 70 71 72 73 75 75 76 78 80 80 81 81 82 83 83 83 82 81 80 79 77 75 75 74 73 72 71 69 68 66 65 63 61 60 58 56 54 53 51 50 49 48 46 45 43 41 40 40 40
36 36 37 37 38 39 40 41 42 43 44 45 46 47 48 49 50 51 52 54 55 56 57 58 59 60 62 63 63 64 64 65 66 67 69 70 72 73 74 75 76 77 78 79 80 81 81 82 83 84 84 83 81 80 79 77 76 74 74 73 72 70 68 66 65 64 62 61 59 57 55 53 52 51 49 47 46 45 44 42 40 38 37 37 37
36 36 37 38 38 39 41 42 43 44 45 46 47 48 49 50 51 52 53 54 56 57 58 59 60 61 62 64 65 66 66 67 67 68 70 71 73 74 75 77 78 80 80 80 81 81 82 83 83 83 82 81 80 78 77 75 74 73 72 71 69 67 65 63 62 60 59 58 56 55 53 51 50 48 46 45 44 42 41 39 37 36 35 34 34
36 37 38 39 40 41 42 43 44 45 46 47 47 49 50 51 52 53 54 55 56 57 58 59 60 61 63 64 65 66 67 68 68 69 70 72 73 75 77 79 80 81 81 81 81 81 81 81 81 80 80 79 77 76 75 74 73 71 69 67 65 63 61 60 59 58 57 56 55 53 52 49 47 45 44 42 41 40 39 37 35 33 33 32 31
37 38 39 40 41 42 43 44 44 45 46 47 48 49 51 52 53 54 55 56 57 58 59 59 61 62 63 64 65 67 68 68 69 70 71 73 74 76 78 79 81 81 81 80 80 80 80 80 79 78 78 77 76 75 73 71 69 67 65 63 61 59 58 58 57 56 55 54 53 51 49 47 45 43 42 41 40 38 37 35 33 31 31 30 28
38 39 40 41 42 43 43 44 45 46 47 48 49 50 51 52 53 54 55 56 57 58 59 60 61 62 63 65 66 67 68 69 70 71 73 75 76 77 79 80 80 80 79 79 79 79 79 78 77 76 75 74 73 71 69 67 65 64 62 60 58 57 56 55 54 53 52 52 51 49 47 45 43 42 40 39 38 36 35 33 31 30 30 29 27
39 40 41 42 42 43 44 45 46 47 48 49 50 51 52 53 54 54 55 55 56 57 58 59 60 62 63 64 65 67 69 70 71 73 75 76 77 78 78 79 79 78 79 79 79 78 76 75 74 73 71 70 69 68 66 64 63 61 60 58 56 54 53 52 51 50 49 49 48 46 44 43 41 40 39 37 36 34 33 32 30 29 29 27 26
40 41 41 42 43 44 45 46 47 48 49 50 51 52 53 53 54 54 54 54 56 57 58 59 60 61 62 63 65 66 69 71 73 75 76 76 77 78 78 78 78 77 78 78 77 75 74 72 71 70 68 67 66 65 63 61 59 58 56 54 52 51 50 49 48 47 47 46 44 43 42 40 39 38 37 35 34 32 31 30 29 28 27 26 24
40 41 42 43 44 45 46 47 48 49 50 51 52 53 53 54 54 53 53 54 55 56 57 58 59 61 62 63 65 67 69 71 72 74 74 75 76 77 78 78 77 76 76 75 74 72 71 70 69 67 66 64 63 61 59 58 56 54 53 51 49 48 47 46 45 44 44 43 41 40 39 38 37 36 35 34 32 31 30 29 28 27 26 25 24
41 42 43 44 45 46 47 48 49 50 51 51 52 53 54 54 54 53 53 54 55 56 56 57 59 60 62 64 65 67 69 70 72 73 74 74 75 75 76 76 76 75 74 72 70 69 68 67 66 65 63 61 60 58 57 55 52 50 49 48 47 45 44 43 42 41 40 39 38 37 36 35 35 34 33 31 30 29 29 28 27 26 24 23 23
42 43 44 45 46 47 48 49 49 50 51 51 52 52 53 53 54 54 54 54 55 55 55 57 59 60 62 64 65 66 68 70 71 72 73 74 74 75 75 74 73 72 70 69 68 67 67 65 64 62 60 58 57 55 54 51 48 47 46 45 44 43 41 40 39 38 37 36 35 35 34 33 32 31 30 29 28 28 28 27 25 24 23 22 22
43 44 45 46 47 48 49 49 50 50 51 51 51 52 52 52 53 54 55 56 56 56 56 58 59 61 63 64 65 66 68 69 70 71 72 73 73 74 73 72 70 69 67 66 66 65 65 63 62 60 58 56 54 53 51 48 46 45 44 43 42 41 40 38 37 36 35 34 33 33 31 30 29 28 28 27 27 26 26 25 24 24 23 22 22
44 45 46 47 47 48 49 49 49 50 50 50 50 51 51 51 52 53 54 55 56 57 58 59 60 61 63 64 65 66 68 68 69 70 70 71 72 72 71 69 67 66 65 64 64 63 62 61 59 57 55 53 51 49 48 46 45 44 43 42 41 40 38 36 35 34 34 33 32 30 29 28 27 27 26 26 26 26 25 24 23 23 23 22 22
45 46 47 47 48 48 49 49 49 49 49 49 50 50 50 51 51 52 53 54 55 57 58 59 60 61 62 63 65 66 67 67 68 69 69 70 69 68 67 66 65 65 64 63 62 60 59 57 55 53 52 50 48 46 45 44 44 43 42 41 40 38 37 35 34 33 32 31 30 29 28 26 26 26 26 26 26 25 24 23 22 22 22 21 21
46 47 47 47 48 48 48 48 48 48 48 49 49 49 50 50 51 51 52 53 54 56 57 59 60 61 62 63 64 66 66 67 67 67 67 67 66 65 63 63 63 63 63 61 59 58 55 53 51 49 48 47 45 45 44 43 42 42 40 39 38 37 36 35 33 32 30 29 28 27 26 25 25 25 25 24 24 23 22 22 21 22 22 21 21
46 47 47 47 47 47 47 47 47 47 48 48 48 48 49 49 50 51 51 53 54 55 57 58 60 61 62 63 64 65 66 66 66 65 64 63 62 62 61 61 61 61 60 58 56 54 53 50 48 47 46 45 43 42 41 40 39 39 38 37 36 35 34 33 31 29 28 27 26 25 25 24 24 23 23 22 22 21 21 21 21 21 21 22 22
46 47 47 47 47 46 46 46 46 47 47 47 47 47 48 49 49 50 51 52 53 55 56 57 59 60 61 62 63 64 64 64 64 63 62 61 60 59 59 59 58 58 57 55 53 51 50 48 47 45 44 42 41 40 39 38 37 36 35 35 34 33 31 30 28 26 25 25 24 23 23 22 22 21 21 21 20 20 20 21 22 22 21 22 22
46 46 46 46 46 46 45 45 46 46 46 46 46 47 47 48 49 50 51 52 53 54 55 56 57 58 59 61 62 62 63 63 62 61 60 59 58 57 56 56 56 55 54 51 49 47 46 45 44 42 41 40 39 37 36 35 35 34 33 33 32 30 29 27 25 24 23 23 22 21 21 20 20 19 19 19 19 19 20 20 21 21 21 22 22
46 46 45 45 45 45 44 44 45 45 45 45 46 46 47 48 49 50 51 52 53 54 55 55 56 57 58 59 60 61 61 60 60 59 57 57 56 55 54 53 53 52 50 47 46 44 43 42 41 40 38 37 36 35 34 33 33 32 31 30 29 28 26 25 24 23 22 21 20 19 19 18 18 18 18 18 18 19 19 20 21 21 21 21 21
45 45 44 44 44 43 44 44 44 44 44 45 45 46 47 47 48 49 50 51 52 53 54 54 55 56 56 58 59 59 58 57 57 56 55 54 53 52 51 51 50 48 46 45 44 43 42 41 39 37 36 35 34 33 32 31 31 30 30 29 28 26 25 23 22 21 20 19 18 17 17 17 17 17 17 17 18 18 19 20 21 21 21 21 21
44 43 43 43 43 43 43 43 43 44 44 45 45 46 46 47 48 48 49 50 51 52 53 53 54 54 55 56 57 57 56 55 55 54 53 52 51 50 49 48 47 45 43 42 42 41 41 40 38 36 35 34 32 32 31 31 30 29 28 27 26 24 23 22 20 19 18 17 16 15 15 15 15 15 16 17 17 18 20 21 22 22 22 21 21
43 42 42 42 42 42 43 43 43 43 44 44 45 45 46 46 47 48 49 50 51 51 52 52 53 54 54 55 55 55 54 54 53 52 51 50 49 48 46 45 44 42 41 40 40 40 39 38 37 36 34 33 32 31 30 29 28 27 26 25 23 22 21 19 18 17 16 14 13 13 12 12 13 14 15 16 17 19 21 22 22 21 21 21 20
42 42 42 42 42 42 42 42 42 43 43 43 44 45 45 46 47 47 48 49 50 50 51 51 52 53 53 54 53 53 53 53 52 50 49 48 46 45 44 43 41 40 39 39 38 37 36 36 36 35 33 32 31 30 28 27 26 25 23 22 20 19 18 17 15 14 12 11 10 9 9 10 11 13 14 16 18 19 21 21 21 21 20 20 19
42 41 41 41 41 41 41 42 42 42 43 43 43 44 45 45 46 47 47 48 49 49 50 50 51 52 52 52 52 52 52 51 50 49 47 46 44 42 41 40 39 38 38 37 36 35 35 34 34 34 33 31 29 28 27 26 25 23 21 19 18 16 15 14 12 11 9 7 7 7 7 9 10 12 14 16 17 19 20 20 20 20 19 19 18
41 41 40 40 40 41 41 41 41 42 42 42 43 43 44 45 45 46 47 47 48 48 49 49 50 50 51 51 51 51 50 50 48 47 45 43 42 40 39 38 37 37 36 35 35 34 33 33 32 32 31 29 28 27 26 25 23 22 20 18 16 14 13 11 9 7 5 3 3 4 6 8 10 12 14 15 16 18 19 19 18 18 18 17 17
40 40 40 40 40 40 40 41 41 41 41 41 42 43 43 44 45 45 46 46 47 47 48 49 49 49 50 50 49 49 49 48 46 45 43 41 39 38 38 37 36 35 34 33 33 32 31 31 30 29 29 28 27 25 24 23 21 20 19 17 15 13 11 9 7 5 3 2 3 4 6 7 9 10 12 13 15 16 17 16 16 16 16 16 16
40 39 39 39 39 40 40 40 40 40 40 41 41 42 43 43 44 44 45 46 46 47 47 48 48 49 49 48 48 48 48 46 45 43 41 39 38 37 36 35 34 33 33 32 31 30 29 29 28 28 27 27 26 25 23 21 20 19 17 16 15 14 11 9 6 5 4 4 4 4 5 6 7 8 10 11 13 14 15 14 14 15 15 15 15
39 39 39 39 39 39 39 39 39 39 40 40 41 42 42 43 44 44 45 45 46 46 47 47 48 48 48 48 47 47 46 45 43 42 40 38 36 35 34 33 33 32 31 30 29 28 28 27 26 26 25 25 25 24 22 20 19 17 16 15 14 13 11 8 6 5 4 4 3 3 3 4 6 7 9 10 12 13 13 13 14 14 15 15 14
38 38 38 38 38 38 38 38 39 39 40 40 41 41 42 43 43 44 44 45 46 46 47 47 47 47 47 47 47 46 45 44 42 40 38 37 36 35 33 32 31 31 30 29 28 27 26 26 25 24 24 23 22 22 21 19 18 17 16 14 13 12 10 8 6 4 3 2 1 1 2 4 5 7 9 10 11 12 12 13 14 14 14 14 14
Wind_Direction
267 268 270 271 273 275 276 278 280 282 283 285 286 287 288 290 292 294 296 297 299 299 299 299 300 300 300 300 301 301 302 302 302 302 302 303 303 303 303 303 303 303 303 303 303 303 303 302 302 302 301 301 300 299 299 299 298 298 297 297 296 295 294 293 293 295 296 296 296 296 296 296 296 295 295 296 296 295 295 295 295 294 294 294 293
269 270 271 272 274 276 277 279 281 282 283 285 286 288 290 291 293 295 297 298 299 299 299 299 300 300 300 300 301 301 302 302 302 303 303 303 303 304 304 304 303 303 303 303 303 303 303 302 302 302 301 301 300 300 300 300 300 299 299 298 297 296 295 294 293 294 295 296 296 295 295 295 295 295 295 295 295 295 295 295 295 294 294 293 293
270 271 272 274 275 277 278 280 281 283 285 286 288 290 291 293 294 296 297 298 299 300 300 300 300 300 300 301 301 301 302 302 302 303 303 303 304 304 304 303 303 303 303 304 304 303 303 303 302 302 301 301 301 301 300 300 300 299 299 298 297 297 296 294 293 293 294 295 296 295 295 295 295 295 295 295 295 295 295 295 295 295 294 293 293
271 272 273 275 277 278 279 281 283 285 287 288 290 292 293 294 295 296 297 298 299 300 300 300 300 300 301 301 301 302 302 302 303 303 303 303 303 303 303 304 304 304 304 304 304 304 303 303 303 302 302 301 301 301 301 300 300 299 299 298 297 297 296 295 294 293 293 294 295 296 295 295 295 295 295 295 295 295 295 295 295 295 294 293 293
272 273 275 276 278 279 281 283 286 287 289 290 292 293 294 295 296 297 298 298 299 299 300 300 300 301 301 301 302 302 302 302 303 303 303 303 303 303 303 304 304 304 304 304 304 304 304 303 303 303 302 302 301 301 301 300 300 299 299 298 298 297 296 295 294 293 293 293 294 296 295 295 295 295 295 295 295 295 295 295 295 295 294 293 293
272 274 276 277 279 280 282 285 287 288 290 291 293 294 294 295 297 297 298 298 299 299 300 300 301 301 301 301 302 302 302 302 302 302 303 303 303 303 303 303 304 304 304 304 304 304 304 304 303 303 302 302 301 301 301 300 300 299 298 298 298 297 296 296 295 294 293 293 294 295 295 295 295 295 295 295 295 294 294 295 295 294 294 293 293
273 275 277 278 279 280 283 286 287 288 290 291 293 294 295 296 297 297 298 298 298 299 300 300 300 301 301 301 301 301 302 302 302 302 302 303 303 303 303 303 303 303 303 304 304 304 304 304 303 303 303 302 302 301 301 300 300 299 299 298 297 297 296 296 295 294 294 293 293 294 294 295 295 295 295 295 294 294 294 294 294 294 293 293 293
274 276 277 278 279 281 283 286 288 289 290 292 294 295 295 296 297 297 298 298 298 299 299 299 300 300 300 301 301 302 302 302 302 302 303 303 303 303 303 303 302 303 303 303 303 303 303 303 303 303 303 302 302 302 301 301 300 299 299 298 297 297 297 296 296 295 294 294 293 294 294 294 294 295 295 295 294 294 294 294 294 294 293 292 292
274 276 277 278 280 281 284 287 289 290 291 293 295 295 296 297 297 297 297 298 298 298 299 299 299 300 301 301 302 303 303 303 303 303 303 303 303 303 302 302 302 302 302 302 303 303 303 303 303 303 303 302 302 302 301 301 300 299 299 298 297 297 296 296 296 295 295 294 294 294 294 294 294 294 294 294 294 294 294 294 293 293 293 292 292
274 276 278 279 281 283 285 288 290 291 293 294 295 296 297 297 297 297 297 297 298 298 299 299 300 300 301 302 303 303 303 303 303 304 304 303 303 303 302 302 302 302 302 302 302 302 302 302 302 302 302 302 302 302 301 301 300 299 299 298 297 296 296 296 296 295 295 294 294 294 294 294 294 294 293 293 293 293 294 293 293 293 292 292 291
275 277 279 280 282 284 287 289 291 292 293 294 295 296 296 297 297 297 297 297 298 298 299 300 300 301 302 302 303 303 303 303 304 304 303 303 303 303 302 302 302 302 302 302 302 302 302 302 302 302 302 302 302 301 301 300 300 299 298 298 297 296 296 296 295 295 295 294 294 294 293 293 293 293 293 293 293 293 293 292 292 292 291 290 291
275 277 280 281 283 286 288 290 292 292 293 294 295 296 296 296 297 297 297 298 298 299 299 300 301 301 302 302 303 303 303 303 303 303 303 303 303 303 303 303 302 302 302 302 302 302 302 302 302 302 302 301 301 301 300 300 299 299 298 298 297 297 296 295 295 295 294 294 293 293 293 293 293 293 293 293 292 292 292 291 290 290 289 289 289
276 278 281 283 285 287 289 291 292 293 293 294 295 296 296 296 297 297 297 298 299 299 300 300 301 301 302 302 303 303 303 304 304 304 304 304 304 303 303 303 303 303 303 303 302 302 302 302 302 301 301 301 301 301 300 300 299 298 298 298 297 297 296 295 294 294 293 293 293 292 293 293 292 292 292 292 292 291 291 290 289 289 288 287 287
277 279 282 284 286 288 290 291 292 293 294 295 295 296 296 296 297 297 297 298 299 299 300 301 301 302 302 302 303 303 304 304 304 304 304 304 304 304 303 303 303 303 303 303 303 302 302 302 301 301 301 301 301 301 300 300 299 299 298 298 297 297 296 295 294 293 293 292 292 292 292 293 292 292 292 292 291 291 290 289 289 288 287 287 287
278 280 282 284 286 288 290 291 292 293 294 294 295 295 295 296 296 297 297 298 299 300 300 301 301 302 302 303 303 303 304 304 304 304 304 304 304 304 303 303 303 303 303 302 302 302 302 301 301 301 301 301 301 301 301 300 300 299 298 298 297 297 296 296 295 294 293 292 292 291 292 292 292 292 292 291 291 290 290 289 288 287 287 286 286
278 281 282 284 286 288 290 291 292 293 294 294 294 295 295 296 296 297 298 299 299 300 301 301 302 302 303 303 303 303 304 304 304 305 305 305 304 304 304 303 303 303 302 302 302 302 302 302 302 302 301 301 301 301 301 300 299 299 298 297 297 296 296 296 295 293 293 292 292 291 292 292 292 292 291 291 291 290 290 288 288 287 286 285 284
278 281 282 284 285 287 289 291 292 292 293 293 294 294 295 296 297 297 298 299 300 301 301 302 302 303 303 303 303 304 304 305 305 305 305 305 305 304 304 303 303 303 303 303 303 302 302 303 303 302 302 302 302 301 301 300 299 298 298 297 297 296 296 296 295 293 292 292 291 291 291 291 291 291 290 290 290 290 289 288 287 286 284 283 283
278 280 282 283 285 287 289 290 291 291 292 293 293 295 296 296 297 298 299 300 300 301 301 302 302 303 303 303 304 304 304 305 305 305 305 306 305 305 304 304 303 303 303 303 303 303 303 303 303 303 302 302 302 301 301 300 299 298 297 297 296 296 296 296 295 294 293 292 291 291 291 291 291 291 290 289 289 289 288 287 286 285 282 282 282
278 280 282 284 285 287 289 290 290 291 292 293 294 295 296 297 298 299 300 300 301 301 301 302 302 303 303 304 304 304 305 305 305 306 306 306 306 305 305 305 304 304 304 304 304 304 303 303 303 303 302 302 302 301 301 300 299 298 297 296 296 296 296 296 295 294 293 292 292 292 291 291 291 290 290 289 289 288 288 287 285 283 281 280 279
279 281 282 284 285 287 288 289 290 291 292 293 294 295 297 298 299 300 300 300 301 301 302 302 303 303 304 304 305 305 305 305 305 306 306 306 306 306 306 305 305 305 305 305 304 304 304 303 303 303 302 302 302 301 301 300 299 298 297 296 295 295 295 294 293 293 293 292 292 291 291 291 290 290 289 289 288 288 288 287 285 282 279 278 276
279 281 282 283 285 286 288 289 290 291 292 294 295 296 297 298 299 300 300 301 301 302 302 303 303 303 304 304 305 305 305 305 306 306 307 307 307 307 306 306 306 306 306 305 305 304 304 304 303 303 303 302 302 301 300 300 299 298 296 295 294 294 294 293 292 292 291 291 291 290 290 290 290 289 289 289 288 288 288 287 285 281 278 276 274
279 280 282 283 285 286 288 289 290 291 293 294 296 297 298 299 300 300 301 301 302 303 303 304 304 304 304 305 305 305 306 306 307 307 307 307 307 307 307 307 307 307 306 306 305 305 304 304 304 303 303 302 302 301 300 300 299 297 296 295 294 293 293 292 291 291 290 290 290 289 289 289 288 288 288 288 288 288 288 287 285 281 277 275 273
279 280 282 283 284 286 287 289 290 292 293 295 296 297 298 299 300 301 302 303 303 304 304 304 304 304 304 305 305 306 306 307 307 307 307 307 308 307 307 307 307 307 307 306 306 305 305 304 304 303 303 302 302 301 301 300 298 297 296 295 294 293 292 291 291 290 289 288 288 288 288 288 287 287 287 287 287 287 287 287 285 281 277 274 273
279 280 281 283 284 286 288 290 291 293 294 295 297 298 299 300 301 302 303 303 303 304 304 304 304 305 305 305 306 306 307 307 307 307 308 308 308 308 308 308 308 308 307 306 306 306 305 305 304 304 303 303 302 301 301 300 298 297 296 295 294 293 292 291 290 289 288 287 287 286 286 286 286 286 286 286 286 286 286 286 284 280 276 273 271
278 280 281 283 285 287 289 290 292 293 295 296 297 298 299 300 301 302 303 304 304 304 304 305 305 305 305 306 306 306 307 307 307 308 308 308 308 308 308 308 308 308 308 307 306 306 305 305 305 304 304 303 302 301 300 300 299 298 297 296 295 294 292 290 289 289 288 287 286 285 285 285 285 285 285 284 284 284 284 285 283 279 275 272 271
279 280 282 284 286 288 290 291 293 294 295 296 297 299 300 301 302 303 303 304 304 305 305 305 305 306 306 306 306 307 307 307 308 308 309 309 309 309 309 309 309 309 308 307 307 306 306 305 305 304 304 303 302 301 301 300 299 298 297 296 295 293 291 290 288 287 287 286 285 284 284 284 284 284 283 282 282 282 282 282 280 276 272 270 269
280 282 284 286 287 289 290 291 293 294 295 297 298 300 301 302 303 303 304 304 305 305 305 305 306 306 306 306 307 307 307 308 309 309 310 310 310 310 310 310 310 309 309 308 307 307 306 306 305 305 304 303 303 302 301 300 299 298 297 296 294 293 291 289 287 286 286 286 285 284 283 283 282 282 281 280 280 280 279 278 276 272 269 267 267
281 283 285 286 287 289 290 292 293 295 297 298 300 301 302 302 303 303 304 304 304 305 305 305 306 306 306 307 307 308 308 309 310 310 311 311 311 311 311 311 311 310 310 309 308 308 307 307 306 306 305 305 304 303 302 300 299 298 298 297 295 293 292 290 288 286 285 285 284 282 281 281 280 279 278 277 277 277 276 274 272 268 266 265 264
282 284 285 286 288 290 291 293 295 296 298 299 300 301 302 302 303 303 303 304 304 305 305 306 306 307 307 308 309 309 309 310 310 311 311 312 312 312 312 312 312 311 311 310 309 309 308 308 307 307 307 306 305 304 303 301 299 299 298 297 295 294 293 291 289 287 286 284 282 281 280 279 277 276 275 275 274 273 272 271 268 265 263 263 261
282 284 286 287 289 291 292 294 295 297 298 299 300 301 301 302 303 303 303 304 305 305 306 306 307 308 308 309 310 310 310 311 311 312 312 312 312 313 313 313 312 312 311 311 310 309 309 309 308 308 308 307 306 305 304 302 300 299 299 297 296 295 294 292 289 287 286 284 282 280 278 277 275 274 272 272 271 270 269 268 264 262 261 259 255
283 285 287 288 290 292 293 294 296 297 298 299 300 301 301 302 303 303 303 305 306 306 307 307 308 309 309 310 310 310 311 311 312 313 313 313 314 314 313 314 313 313 312 312 311 310 310 309 309 309 308 308 307 307 305 303 302 300 299 298 297 296 295 292 289 287 286 284 282 280 277 275 274 272 270 269 267 266 266 265 262 260 257 253 250
284 286 287 289 290 292 293 295 296 298 298 299 300 301 301 302 303 303 303 305 306 307 308 309 310 310 311 311 311 312 312 312 313 314 314 314 314 315 315 315 315 314 314 313 312 312 311 310 310 309 309 308 308 307 306 304 302 301 300 299 298 297 295 292 291 289 287 285 283 280 277 276 273 271 268 266 264 263 263 261 258 256 253 248 245
285 286 288 289 291 292 294 295 297 298 298 299 300 301 302 302 303 303 303 305 306 307 308 309 311 311 312 313 313 313 314 314 314 315 315 315 315 316 316 316 315 315 315 314 313 313 312 311 310 309 309 308 308 308 307 306 304 303 302 301 300 298 296 294 292 291 288 286 283 280 278 276 273 269 267 264 261 260 260 257 253 250 246 243 241
285 287 288 290 292 293 294 295 296 297 298 299 300 301 302 302 303 303 304 305 305 306 307 309 311 312 313 313 314 315 315 316 316 316 316 316 317 317 317 316 316 317 316 316 314 313 312 311 310 310 309 308 308 309 309 308 306 305 304 303 301 299 297 295 293 291 289 286 283 280 278 275 271 267 264 261 259 258 256 252 248 244 240 238 236
286 288 289 290 292 293 294 295 296 297 298 299 300 301 302 302 303 304 305 305 306 307 308 309 311 313 314 315 315 316 317 317 317 317 318 318 318 318 318 318 318 318 317 316 315 314 314 312 311 310 309 308 308 309 308 308 307 306 305 304 302 301 299 296 294 291 289 285 281 279 276 273 268 264 261 258 255 253 250 247 244 239 235 233 230
286 288 289 290 292 293 294 295 296 297 298 299 300 301 302 303 304 304 305 306 307 308 309 310 312 313 315 316 317 317 318 318 318 319 319 319 319 319 319 319 319 319 318 318 317 316 315 314 313 312 311 310 309 309 308 308 307 306 305 304 303 302 300 298 295 291 288 284 280 277 274 270 266 262 259 256 252 248 245 242 239 234 230 226 221
286 288 289 290 291 293 293 294 295 296 298 299 300 301 302 303 304 305 306 307 308 309 310 312 313 314 315 316 318 318 319 319 319 320 320 320 320 320 320 320 319 319 319 318 318 317 317 316 315 313 312 311 310 309 308 308 307 307 306 305 303 302 300 298 294 291 286 282 279 276 272 268 264 260 257 253 248 244 241 237 232 227 223 219 213
286 288 289 290 291 292 293 294 295 296 298 299 300 301 302 303 304 305 306 308 309 310 312 313 314 315 316 317 318 319 319 320 320 321 321 321 321 321 321 321 321 320 320 319 318 318 318 317 316 315 314 313 311 310 309 309 308 307 306 305 304 301 299 297 294 290 286 281 278 274 270 266 262 259 255 249 243 238 236 231 225 220 217 213 209
286 287 288 289 290 291 292 294 295 296 298 299 300 301 302 303 304 306 307 308 310 311 313 314 315 316 317 318 319 320 321 321 322 322 322 322 323 323 323 323 323 323 322 321 320 319 319 318 317 316 315 313 313 312 311 310 309 308 308 307 305 303 301 298 295 290 285 280 277 273 268 265 262 257 251 244 238 233 230 224 219 214 211 207 205
286 287 288 289 290 291 292 294 295 296 297 299 300 301 302 303 305 306 308 309 310 312 313 315 316 317 318 319 320 321 322 322 322 322 323 323 323 324 324 325 325 325 324 323 322 322 322 321 320 319 317 315 314 313 312 312 311 310 310 309 308 306 304 301 296 291 285 280 276 272 268 264 259 252 245 238 232 228 224 218 213 207 203 201 201
286 287 287 288 289 290 292 294 295 296 297 299 300 301 302 304 305 306 308 309 311 312 314 315 316 317 319 320 321 323 323 322 323 323 323 324 324 325 326 327 327 326 326 325 325 325 325 324 323 322 320 319 318 317 316 315 315 314 314 313 311 309 306 303 298 292 287 282 277 272 268 261 253 245 239 232 227 222 217 211 204 199 197 197 197
285 286 286 287 289 290 292 293 294 296 297 299 300 301 302 304 305 307 308 310 311 312 314 315 316 317 319 320 322 323 323 323 323 323 324 324 325 326 327 328 328 328 328 328 328 328 328 327 326 325 324 323 323 322 321 320 319 318 317 315 313 310 307 303 299 294 289 284 277 271 265 257 248 239 232 226 221 215 209 201 195 192 191 191 192
284 284 285 287 288 290 291 293 294 296 297 298 300 301 302 304 305 307 308 310 311 312 313 314 316 317 319 321 322 323 323 324 324 324 324 324 326 326 327 328 329 329 330 330 331 331 331 330 330 329 328 327 326 325 323 322 320 319 317 316 314 311 308 305 301 297 291 285 278 269 260 251 241 232 225 219 213 206 198 191 187 187 188 189 190
282 283 285 286 288 290 291 292 294 295 297 298 300 301 302 304 305 307 309 310 311 312 313 314 316 317 319 321 322 323 323 324 325 324 324 325 326 327 327 328 329 331 332 333 333 333 333 333 332 331 330 328 327 325 324 323 322 320 319 318 316 314 311 307 304 299 293 286 277 267 254 241 230 223 216 208 200 193 188 185 184 186 188 190 192
281 282 284 286 288 289 290 292 293 295 296 298 299 301 303 304 306 307 309 310 311 312 313 314 315 317 319 320 322 322 324 325 325 325 325 325 326 326 327 328 330 331 333 334 334 335 336 336 335 334 333 331 330 330 330 329 328 325 324 323 321 319 316 312 308 304 297 287 275 261 244 228 219 211 203 194 188 185 184 183 185 187 189 191 194
280 282 284 286 287 289 290 291 293 294 296 298 299 301 303 304 306 307 309 310 311 312 313 314 316 317 319 320 321 322 324 325 325 324 325 325 326 326 327 328 330 331 333 334 334 336 337 339 339 339 337 336 336 336 337 337 336 334 332 331 329 327 324 322 318 313 304 287 269 250 228 213 203 195 188 184 183 184 183 184 187 189 192 195 198
280 282 283 285 286 288 289 291 292 294 296 298 300 301 303 304 306 307 309 310 311 312 313 315 317 318 319 320 321 322 323 324 324 324 324 325 325 325 326 327 329 331 332 333 334 335 338 340 341 342 343 342 342 342 343 343 344 343 343 342 340 338 338 337 334 330 319 292 250 214 198 191 185 181 180 180 183 184 185 187 190 194 196 200 202
279 281 282 284 285 287 289 291 292 294 296 298 300 302 303 305 306 307 308 310 311 312 314 316 317 318 319 320 321 322 322 323 323 323 323 324 324 324 325 326 328 330 332 332 333 334 337 339 341 344 346 347 348 349 349 350 352 354 355 355 354 353 353 353 355 2 22 82 132 151 164 172 176 177 180 182 185 187 189 192 195 198 201 205 208
278 280 281 283 285 287 288 290 292 294 296 298 300 302 304 305 306 307 308 310 311 313 314 316 317 318 319 319 320 321 322 322 322 322 322 322 322 323 324 325 327 329 330 331 332 333 335 338 340 343 345 347 349 351 354 357 360 3 4 5 5 5 8 14 25 43 67 90 110 131 154 169 177 181 184 186 189 192 194 197 201 204 207 210 213
277 279 281 282 284 286 288 290 292 294 297 298 300 302 303 304 306 307 309 310 311 313 314 315 316 317 318 318 319 320 321 321 320 320 320 320 321 321 322 323 325 327 328 329 329 331 333 335 338 340 342 344 347 350 353 356 0 3 5 6 8 11 16 23 34 48 66 83 103 130 158 175 184 188 190 193 196 198 201 204 208 212 214 216 219
277 278 280 282 284 286 288 290 292 294 296 298 300 302 303 304 306 307 309 310 311 312 314 314 315 316 316 317 318 319 319 319 319 318 318 318 319 319 320 321 322 324 326 326 327 328 329 332 334 336 338 340 342 345 348 351 354 357 358 1 4 7 11 14 20 28 43 62 104 172 192 196 197 197 197 200 204 207 210 213 216 218 221 223 226